FENGYUN 1C DEB

Satellite information

Favourite Embed

Satellite Type and Status

DEBRISIN ORBIT

Key statistics

Satellite FENGYUN 1C DEB at a glance.

Uptime

9715

Days in orbit

Revolutions

≈ 14.0

Per day

Orbit

SSO

Sun Synchronous Orbit

Inclination

99.7

Latest

Satellite identification and parameters

Extended collection of information and parameters for FENGYUN 1C DEB.

Object identification

Identified? True

Debris? True

Object name: FENGYUN 1C DEB

International designator: 1999-025BNS

Object number (NORAD): 31284

Object ID (CCSDS): 31284

Country: PEOPLES REPUBLIC OF CHINA (PRC)

Current information (Y/N): Y

RCS size: SMALL

Orbital parameters

Period: 103.012 minutes

Inclination: 99.7224 deg

SMA: 7279.237 km

Apoapsis: 1005.324 km

Periapsis: 796.879 km

RAAN: 78.7683 deg

Eccentricy: 0.01431779

Argument of periapsis: 64.7625 deg

Mean anomaly: 296.8299 deg

Mean motion: 13.97893195 rev/day

Mean motion (dot): 0.0000127 rev/day2

B* drag term: 0.00085263573 1/REarth

Two-line elements (TLE)

Creation date: Dec. 10, 2025, 7:58 p.m.

Reference frame: TEME

Reference center: EARTH

Epoch: Dec. 10, 2025, 12:05 p.m. UTC

TLE line 0: 0 FENGYUN 1C DEB

TLE line 1: 1 31284U 99025BNS 25344.50352800 .00001270 00000-0 85264-3 0 9992

TLE line 2: 2 31284 99.7224 78.7683 0143178 64.7625 296.8299 13.97893195951315

Live tracking on map

Real-time ground track for satellite FENGYUN 1C DEB.

In-orbit conjunctions

A list of the most updated potential collisions computed for object FENGYUN 1C DEB.

Target Orbit TCA Probability of collision Miss distance Type
COSMOS 397 DEB LEO 2025-03-10 09:25:23 0.0001031315 154.0 (m) DEBRIS
IRS 1B SSO 2025-01-27 12:39:31 0.003594311 95.0 (m) PAYLOAD

Associated space launch

Chinese polar orbiting meteorological satellite

FENGYUN 1C DEB was lifted into orbit during the mission ‘Long March 4B | Feng Yun 1C’, on board a Long March 4B space rocket.

The launch took place on May 10, 1999, 1:33 a.m. from Launch Complex 7.

For more information about the launch, click the button.

Launch to space Long March 4B | Feng Yun 1C
Long March 4B | Feng Yun 1C

Agency: N/A

Status: Launch Successful

Launch date: May 10, 1999, 1:33 a.m. UTC

Rocket: Long March 4B

Launch pad: Launch Complex 7

Location: Taiyuan Satellite Launch Center, People's Republic of China

...

Latest news about this satellite

There are no fresh news available about this satellite. Check back as we update our databases every day.


Newsletter sign-up

Weekly statistics, charts and insights to help you stay on top of the space industry.